[[{"header":{"parameterUnit":"m.s-1","parameterCategory":1,"la1":30.2991,"la2":30.254,"lo1":-89.0895,"lo2":-89.0444,"dy":0.0017,"dx":0.0017,"nx":28,"ny":28,"refTime":"2024-03-10T09:00:00:Z","depth":0,"parameterNumber":2,"parameterNumberName":"U-component_of_WINDS"},"data":[0,0,0,0,0,0,0,0,0,0,0,0,0,0,0,0,0,0,0,0,0,0,0,0,0,0,0,0,0,0,0,0,0,0,0,0,0,0,0,0,0,0,0,0,0,0,0,0,0,0,0,0,0,0,0,0,0,0,-2.2731,-2.273,0,-2.269,-2.269,-2.2689,-2.2566,-2.2563,-2.2561,-2.2558,-2.2521,-2.2523,-2.2524,0,0,0,0,0,0,0,0,0,0,0,0,0,-2.2708,-2.2709,-2.2731,-2.273,-2.273,-2.269,-2.269,-2.2689,-2.2567,-2.2563,-2.256,-2.2557,-2.2521,-2.2523,-2.2524,0,0,0,0,0,0,0,0,0,0,0,0,0,-2.2698,-2.271,-2.2731,-2.2664,-2.2657,-2.269,-2.269,-2.2689,-2.2567,-2.2563,-2.2559,-2.2555,-2.252,-2.2522,-2.2525,-2.2621,0,0,-2.2532,-2.2533,0,0,0,0,0,0,0,0,-2.2699,-2.2699,-2.2674,-2.2668,-2.2661,-2.2629,-2.2668,-2.2666,-2.2568,-2.2602,-2.2558,-2.2553,-2.2561,-2.2559,-2.2561,-2.2619,-2.2617,-2.2532,-2.2533,-2.2534,-2.2535,0,0,0,0,0,0,0,-2.27,-2.27,-2.2715,-2.2674,-2.2666,-2.2638,-2.2632,-2.2667,-2.2605,-2.2598,-2.2589,-2.2586,-2.2556,-2.2559,-2.2559,-2.2617,-2.2532,-2.2534,-2.2535,-2.2536,-2.2755,-2.2759,0,0,0,0,0,0,-2.2709,-2.2701,-2.2716,-2.2713,-2.267,-2.2641,-2.2635,-2.2644,-2.2604,-2.2594,-2.259,-2.258,-2.2557,-2.2557,-2.2557,-2.2669,-2.2534,-2.2537,-2.2538,-2.275,-2.2756,-2.276,0,0,0,0,0,0,-2.2709,-2.2712,-2.2718,-2.2705,-2.2704,-2.2646,-2.2657,-2.2645,-2.2647,-2.2597,-2.2586,-2.2603,-2.2554,-2.2554,-2.2606,-2.2666,-2.2538,-2.254,-2.2745,-2.2752,-2.2758,-2.2892,0,0,0,0,0,0,-2.2709,-2.2712,-2.2747,-2.2707,-2.2705,-2.2766,-2.2661,-2.2647,-2.2651,-2.2639,-2.2607,-2.2598,-2.2551,-2.2603,-2.2609,-2.2667,-2.2542,-2.2739,-2.2748,-2.2756,-2.2882,-2.2902,-2.292,0,0,0,0,0,-2.2709,-2.2786,-2.2749,-2.2751,-2.2746,-2.2769,-2.2768,-2.2711,-2.2656,-2.2691,-2.266,-2.2599,-2.2658,-2.261,-2.2614,-2.2674,-2.2735,-2.2746,-2.2755,-2.2873,-2.2898,-2.2919,0,0,0,0,0,0,-2.2836,-2.278,-2.2738,-2.2804,-2.2793,-2.2748,-2.2791,-2.2739,-2.2743,-2.2732,-2.2662,-2.2656,-2.2718,-2.2701,-2.2648,-2.2767,-2.2687,-2.2698,-2.2775,-2.2799,-2.2817,-2.282,-2.2544,0,0,0,0,0,-2.2872,-2.2894,-2.2844,-2.2908,-2.2904,-2.2849,-2.2857,-2.2814,-2.2799,-2.2794,-2.2765,-2.2755,-2.2772,-2.2784,-2.2796,-2.2879,-2.2872,-2.2923,-2.2942,-2.2957,-2.2968,-2.3013,-2.3036,-2.2793,-2.2793,-2.2793,0,0,-2.2946,-2.2918,-2.2936,-2.2933,-2.2918,-2.2945,-2.2845,-2.2877,-2.2896,-2.2799,-2.2846,-2.2826,-2.281,-2.2878,-2.2907,-2.2866,-2.3034,-2.297,-2.2983,-2.2985,-2.3026,-2.3049,-2.307,-2.28,-2.2798,-2.2797,0,0,-2.3095,-2.3075,-2.3127,-2.3115,-2.3094,-2.3057,-2.307,-2.3034,-2.3017,-2.3063,-2.2991,-2.3015,-2.3043,-2.3036,-2.3036,-2.3185,-2.313,-2.3191,-2.329,-2.3335,-2.3354,-2.337,-2.3426,-2.3446,-2.3202,-2.3202,-2.3202,0,-2.3191,-2.3225,-2.3161,-2.3197,-2.3199,-2.3111,-2.3165,-2.3157,-2.3142,-2.3146,-2.31,-2.3136,-2.3119,-2.3186,-2.3223,-2.3225,-2.3239,-2.3194,-2.3356,-2.3372,-2.3387,-2.3439,-2.3459,-2.321,-2.3209,-2.3208,-2.3207,0,-2.3345,-2.337,-2.3415,-2.3402,-2.3409,-2.3454,-2.3399,-2.3414,-2.3371,-2.334,-2.339,-2.3367,-2.3374,-2.3386,-2.3345,-2.3448,-2.3423,-2.3368,-2.3287,-2.3419,-2.3466,-2.3486,-2.322,-2.3218,-2.3215,-2.3214,0,0,-2.3572,-2.3524,-2.3542,-2.3536,-2.3507,-2.3527,-2.357,-2.3575,-2.359,-2.3584,-2.3619,-2.3647,-2.3596,-2.3596,-2.3553,-2.3592,-2.3715,-2.3532,-2.3531,-2.3568,-2.383,-2.3874,-2.3897,-2.3678,-2.3682,-2.3684,-2.3832,0,-2.3714,-2.3782,-2.3727,-2.3806,-2.383,-2.3748,-2.3786,-2.3774,-2.3747,-2.3765,-2.3735,-2.3757,-2.3687,-2.3687,-2.3722,-2.3693,-2.3767,-2.3681,-2.3713,-2.3715,-2.3721,-2.3922,-2.3967,-2.4108,-2.385,-2.3853,-2.3856,0,-2.3889,-2.389,-2.3971,-2.394,-2.3948,-2.3982,-2.3984,-2.4002,-2.3988,-2.3966,-2.3967,-2.3915,-2.3957,-2.3877,-2.3935,-2.3878,-2.3888,-2.3876,-2.388,-2.3882,-2.3794,-2.3931,-2.4151,-2.4173,-2.3884,-2.3882,-2.388,0,-2.4049,-2.4071,-2.4122,-2.412,-2.4084,-2.411,-2.4097,-2.4078,-2.4086,-2.4089,-2.4094,-2.4102,-2.4107,-2.4116,-2.4068,-2.4014,-2.4134,-2.4049,-2.4119,-2.412,-2.4148,-2.4147,-2.4375,-2.4153,-2.4152,-2.4152,-2.4152,0,-2.4214,-2.4268,-2.4194,-2.4226,-2.4285,-2.4222,-2.4282,-2.426,-2.4246,-2.4274,-2.4204,-2.4233,-2.4167,-2.4189,-2.4152,-2.4208,-2.421,-2.4195,-2.4185,-2.4202,-2.4205,-2.4209,-2.4198,-2.4158,-2.4156,-2.4155,-2.4154,0,-2.4403,-2.4355,-2.4407,-2.4369,-2.4361,-2.4406,-2.4374,-2.4404,-2.4373,-2.441,-2.4415,-2.4367,-2.439,-2.4343,-2.436,-2.4335,-2.4414,-2.4388,-2.4419,-2.4411,-2.4484,-2.4479,-2.4723,-2.4753,-2.4511,-2.4513,-2.4515,0,-2.4512,-2.4552,-2.4518,-2.4531,-2.4522,-2.4544,-2.4552,-2.4492,-2.4503,-2.4492,-2.4524,-2.4541,-2.4551,-2.4593,-2.4561,-2.4575,-2.4549,-2.4634,-2.4551,-2.4568,-2.4553,-2.4552,-2.4556,-2.4652,-2.4654,-2.4657,-2.4659,0,-2.4712,-2.4687,-2.4699,-2.4706,-2.4717,-2.4719,-2.4716,-2.4731,-2.4668,-2.4685,-2.4707,-2.4716,-2.4733,-2.4753,-2.4759,-2.4747,-2.4694,-2.4685,-2.4702,-2.4721,-2.4738,-2.4732,-2.4467,-2.468,-2.4678,-2.4676,-2.4675,-2.4674,-2.4865,-2.4897,-2.4879,-2.4897,-2.4888,-2.4888,-2.4914,-2.4886,-2.4903,-2.4912,-2.4877,-2.4908,-2.4896,-2.4898,-2.4893,-2.4918,-2.488,-2.4905,-2.4911,-2.4919,-2.4931,-2.4733,-2.4919,-2.4918,-2.4918,-2.4917,-2.4917,0,-2.5063,-2.5047,-2.5064,-2.5062,-2.5077,-2.5024,-2.5019,-2.5035,-2.5063,-2.5055,-2.5067,-2.5095,-2.5114,-2.5084,-2.5098,-2.5124,-2.5101,-2.513,-2.5129,-2.5127,-2.4963,-2.4948,-2.5149,-2.5149,-2.5149,-2.5149,-2.5149,-2.5149,-2.5167,-2.5219,-2.5193,-2.5241,-2.5225,-2.5254,-2.5256,-2.5257,-2.525,-2.5284,-2.5299,-2.5278,-2.5263,-2.5276,-2.5292,-2.5282,-2.5292,-2.5331,-2.5314,-2.5161,-2.5139,-2.5117,-2.5102,-2.5333,-2.5333,-2.5476,-2.5477,-2.5478]},{"header":{"parameterUnit":"m.s-1","parameterCategory":1,"la1":30.2991,"la2":30.254,"lo1":-89.0895,"lo2":-89.0444,"dy":0.0017,"dx":0.0017,"nx":28,"ny":28,"refTime":"2024-03-10T09:00:00:Z","depth":0,"parameterNumber":3,"parameterNumberName":"V-component_of_WINDS"},"data":[0,0,0,0,0,0,0,0,0,0,0,0,0,0,0,0,0,0,0,0,0,0,0,0,0,0,0,0,0,0,0,0,0,0,0,0,0,0,0,0,0,0,0,0,0,0,0,0,0,0,0,0,0,0,0,0,0,0,1.2449,1.2449,0,1.2408,1.2408,1.2407,1.2414,1.2414,1.2415,1.2416,1.2368,1.2366,1.2364,0,0,0,0,0,0,0,0,0,0,0,0,0,1.2529,1.2527,1.2449,1.2449,1.2448,1.2408,1.2408,1.2407,1.2414,1.2414,1.2415,1.2416,1.2369,1.2366,1.2364,0,0,0,0,0,0,0,0,0,0,0,0,0,1.2491,1.2527,1.2449,1.2447,1.2446,1.2408,1.2408,1.2407,1.2413,1.2414,1.2416,1.2417,1.2369,1.2367,1.2364,1.2324,0,0,1.2355,1.2354,0,0,0,0,0,0,0,0,1.2494,1.2488,1.2448,1.2447,1.2446,1.2417,1.2418,1.2379,1.2413,1.2426,1.2416,1.2417,1.2383,1.2379,1.2369,1.2322,1.232,1.2355,1.2353,1.2352,1.2351,0,0,0,0,0,0,0,1.2496,1.249,1.2433,1.2447,1.2446,1.2446,1.2442,1.2411,1.2399,1.2425,1.2425,1.242,1.2383,1.2372,1.2368,1.2319,1.2355,1.2352,1.235,1.2349,1.2237,1.2236,0,0,0,0,0,0,1.25,1.2492,1.2434,1.2432,1.2473,1.2444,1.2439,1.2425,1.2399,1.2396,1.242,1.2421,1.2376,1.2371,1.2366,1.2317,1.2352,1.2349,1.2347,1.2238,1.2237,1.2235,0,0,0,0,0,0,1.2502,1.2495,1.2436,1.2462,1.2455,1.2441,1.2426,1.2424,1.2413,1.2395,1.2393,1.2411,1.2377,1.237,1.2335,1.2316,1.2348,1.2345,1.224,1.2238,1.2236,1.222,0,0,0,0,0,0,1.2504,1.2496,1.2481,1.2462,1.2453,1.2406,1.2425,1.2422,1.2408,1.241,1.2386,1.2383,1.2377,1.2339,1.2332,1.2312,1.2343,1.2241,1.2239,1.2237,1.2222,1.2218,1.2214,0,0,0,0,0,1.2507,1.2477,1.248,1.2473,1.2435,1.2405,1.24,1.2395,1.2407,1.2392,1.2381,1.2384,1.232,1.2336,1.2327,1.2307,1.2242,1.224,1.2237,1.2224,1.2219,1.2214,0,0,0,0,0,0,1.2492,1.2474,1.2478,1.2441,1.2425,1.2407,1.2387,1.239,1.2369,1.237,1.2364,1.2359,1.2323,1.2311,1.2329,1.2267,1.2282,1.2278,1.2275,1.227,1.2266,1.2269,1.234,0,0,0,0,0,1.2485,1.2464,1.2449,1.2418,1.241,1.24,1.2387,1.2385,1.2367,1.2359,1.2346,1.2326,1.2302,1.2286,1.2262,1.2221,1.2215,1.2203,1.2199,1.2196,1.2191,1.2168,1.2162,1.2226,1.2226,1.2227,0,0,1.2469,1.2457,1.2443,1.2415,1.2402,1.2378,1.2394,1.2368,1.235,1.2355,1.2321,1.231,1.2288,1.225,1.2232,1.2239,1.2173,1.2193,1.219,1.2187,1.2165,1.2159,1.2153,1.2225,1.2225,1.2225,0,0,1.2428,1.2418,1.239,1.2378,1.2359,1.2353,1.2347,1.2328,1.2322,1.2288,1.2291,1.2269,1.2227,1.2212,1.2198,1.2153,1.2155,1.2146,1.2124,1.2102,1.2096,1.2092,1.2074,1.2069,1.2142,1.2142,1.2142,0,1.241,1.2377,1.2376,1.235,1.2337,1.2343,1.2314,1.2301,1.2275,1.2265,1.2274,1.2223,1.2208,1.2166,1.2155,1.2145,1.2136,1.2147,1.2098,1.2093,1.2089,1.2072,1.2066,1.2141,1.2141,1.2141,1.2141,0,1.2355,1.2332,1.2312,1.2288,1.2273,1.2246,1.224,1.2224,1.2224,1.2217,1.2182,1.2166,1.2139,1.213,1.2128,1.2087,1.2092,1.21,1.2115,1.2082,1.2066,1.2059,1.2139,1.214,1.214,1.214,0,0,1.2301,1.2279,1.2272,1.2261,1.2242,1.2223,1.2196,1.2172,1.2158,1.2141,1.2117,1.2082,1.209,1.2075,1.2072,1.2053,1.2017,1.2062,1.2062,1.2053,1.1969,1.1962,1.1954,1.2019,1.2018,1.2017,1.197,0,1.2257,1.2211,1.221,1.2168,1.2145,1.2152,1.2128,1.2113,1.2106,1.2085,1.2076,1.2051,1.2064,1.2055,1.2036,1.2025,1.1999,1.2029,1.1995,1.1993,1.1998,1.1946,1.1938,1.1895,1.1964,1.1963,1.1962,0,1.2199,1.2181,1.2137,1.2121,1.2112,1.2091,1.2069,1.205,1.2032,1.2029,1.2013,1.2013,1.1985,1.2003,1.1962,1.1982,1.1969,1.1961,1.1959,1.1954,1.1974,1.1938,1.1881,1.1874,1.1953,1.1953,1.1954,0,1.2162,1.2127,1.2096,1.2087,1.2069,1.2054,1.2045,1.2029,1.2015,1.1996,1.1986,1.1963,1.195,1.1931,1.1925,1.1939,1.1884,1.1902,1.1878,1.1878,1.1864,1.1865,1.1803,1.1859,1.1859,1.1859,1.1859,0,1.2111,1.2084,1.208,1.206,1.2029,1.2028,1.1997,1.1989,1.1975,1.1954,1.1958,1.1937,1.1931,1.1909,1.1904,1.187,1.1865,1.1859,1.1858,1.1858,1.1858,1.1847,1.1849,1.1858,1.1858,1.1858,1.1859,0,1.2064,1.206,1.2027,1.2013,1.2009,1.1986,1.1974,1.1954,1.1949,1.1921,1.1915,1.1905,1.1879,1.1872,1.1841,1.1837,1.1797,1.18,1.1804,1.1803,1.1779,1.1781,1.1706,1.1695,1.176,1.176,1.1759,0,1.2031,1.201,1.1995,1.1981,1.1972,1.1951,1.1937,1.1936,1.1921,1.19,1.1883,1.1859,1.1838,1.1796,1.1785,1.1761,1.1762,1.1737,1.1758,1.1758,1.1759,1.176,1.1757,1.1732,1.1732,1.1731,1.1731,0,1.1972,1.1972,1.1953,1.1933,1.1917,1.1901,1.1886,1.1874,1.187,1.1853,1.1828,1.1813,1.1782,1.1756,1.1733,1.1722,1.1725,1.1725,1.1718,1.1716,1.1719,1.1715,1.1791,1.1726,1.1726,1.1727,1.1727,1.1727,1.1929,1.1911,1.1898,1.1876,1.1865,1.1851,1.1833,1.1826,1.1805,1.1781,1.1782,1.1754,1.1737,1.1706,1.1694,1.1671,1.1678,1.1668,1.1665,1.1662,1.1659,1.1725,1.1667,1.1667,1.1667,1.1667,1.1667,0,1.1869,1.1862,1.1842,1.1822,1.1805,1.1813,1.1796,1.1781,1.1757,1.1742,1.1723,1.1694,1.167,1.1658,1.1634,1.1618,1.1618,1.1611,1.1611,1.1608,1.1655,1.1663,1.1611,1.1611,1.1611,1.1611,1.1611,1.1611,1.1836,1.1805,1.1804,1.1767,1.176,1.1734,1.1724,1.171,1.1699,1.1666,1.1647,1.1641,1.1627,1.1602,1.158,1.1577,1.1567,1.1558,1.1556,1.1599,1.1605,1.161,1.1617,1.1557,1.1557,1.151,1.151,1.151]}]]